Regional Weather Roundup
Issued by NWS

Home | Current Version | Previous Version | Text Only | Print | Product List | Glossary On
Versions: 1 2 3 4 5 6 7 8 9 10 11 12 13 14 15 16 17 18 19 20 21 22 23 24 25 26 27 28 29 30 31 32 33 34 35 36 37 38 39 40 41 42 43 44 45 46 47 48 49 50
000
ASUS42 KKEY 251410
RWRKEY

FLORIDA REGIONAL WEATHER ROUNDUP FOR THE FLORIDA KEYS
NATIONAL WEATHER SERVICE KEY WEST FLORIDA
1000 AM EDT WED MAY 25 2016

...SOUTH FLORIDA AND THE KEYS...

CITY           SKY/WX    TMP DP  RH WIND       PRES   REMARKS
FORT MYERS     SUNNY     82  66  58 E14       30.17R
SW REGIONAL AP SUNNY     83  66  56 SE15      30.18R
NAPLES         SUNNY     83  68  60 E14       30.16R
MIAMI          MOSUNNY   82  69  64 E17       30.17R
WEST KENDALL   MOSUNNY   83  68  60 E18G25    30.16R
HOMESTEAD      NOT AVBL
MARATHON       PTSUNNY   81  74  79 E10G20    30.13R
BOCA CHICA NAS MOSUNNY   84  71  65 E8        30.13R
KEY WEST INTL  MOSUNNY   82  73  74 E9        30.13R

...INTERNATIONAL WEATHER...

CITY           SKY/WX    TMP DP  RH WIND       PRES   REMARKS
NASSAU BAHAMAS MOSUNNY   82  72  69 NE13      30.17R
CANCUN MEXICO  PTSUNNY   86  77  74 E13       30.07R HX  97
COZUMEL MEXICO MOSUNNY   82  77  83 E8        30.05R HX  91

ADJACENT COASTAL WATERS...

STATION/POSITION TIME  SKY/WX   TEMP    WIND        PRES    WAVE
                                AIR SEA DIR/SP/G            HT/PER
                 (UTC)          (F)     (DEG/KT/KT) (MB)    (FT/S)
PULASKI SHOAL LI 1400            80      90/ 16/ 17 1020.3R
SAND KEY         1350            80     110/  9/ 11 1020.6R
SOMBRERO KEY     NOT AVBL
LONG KEY         1400            82 85   90/ 16/ 19 1021.0R
MOLASSES REEF    1400            81 83   80/ 18/ 20 1020.9R
FOWEY ROCKS      1400            80 83   70/ 16/ 18 1022.0R

$$



USA.gov is the U.S. government's official web portal to all federal, state and local government web resources and services.